#datetime,building,power
2022-10-12T00:00:00,mcc,60.98
2022-10-12T00:01:00,mcc,59.69
2022-10-12T00:02:00,mcc,59.31
2022-10-12T00:03:00,mcc,57.45
2022-10-12T00:04:00,mcc,54.43
2022-10-12T00:05:00,mcc,57.55
2022-10-12T00:06:00,mcc,69.44
2022-10-12T00:07:00,mcc,58.42
2022-10-12T00:08:00,mcc,57.88
2022-10-12T00:09:00,mcc,57.27
2022-10-12T00:10:00,mcc,59.80
2022-10-12T00:11:00,mcc,59.90
2022-10-12T00:12:00,mcc,59.30
2022-10-12T00:13:00,mcc,59.70
2022-10-12T00:14:00,mcc,61.49
2022-10-12T00:15:00,mcc,57.80
2022-10-12T00:16:00,mcc,55.96
2022-10-12T00:17:00,mcc,50.58
2022-10-12T00:18:00,mcc,48.30
2022-10-12T00:19:00,mcc,46.70
2022-10-12T00:20:00,mcc,46.50
2022-10-12T00:21:00,mcc,48.68
2022-10-12T00:22:00,mcc,46.33
2022-10-12T00:23:00,mcc,46.51
2022-10-12T00:24:00,mcc,47.13
2022-10-12T00:25:00,mcc,54.15
2022-10-12T00:26:00,mcc,46.28
2022-10-12T00:27:00,mcc,44.57
2022-10-12T00:28:00,mcc,45.69
2022-10-12T00:29:00,mcc,44.39
2022-10-12T00:30:00,mcc,44.66
2022-10-12T00:31:00,mcc,45.35
2022-10-12T00:32:00,mcc,44.03
2022-10-12T00:33:00,mcc,43.90
2022-10-12T00:34:00,mcc,44.70
2022-10-12T00:35:00,mcc,48.11
2022-10-12T00:36:00,mcc,45.98
2022-10-12T00:37:00,mcc,47.58
2022-10-12T00:38:00,mcc,45.50
2022-10-12T00:39:00,mcc,45.35
2022-10-12T00:40:00,mcc,42.01
2022-10-12T00:41:00,mcc,42.33
2022-10-12T00:42:00,mcc,41.78
2022-10-12T00:43:00,mcc,43.89
2022-10-12T00:44:00,mcc,43.54
2022-10-12T00:45:00,mcc,51.68
2022-10-12T00:46:00,mcc,46.65
2022-10-12T00:47:00,mcc,42.75
2022-10-12T00:48:00,mcc,43.42
2022-10-12T00:49:00,mcc,44.50
2022-10-12T00:50:00,mcc,46.65
2022-10-12T00:51:00,mcc,47.25
2022-10-12T00:52:00,mcc,42.89
2022-10-12T00:53:00,mcc,43.00
2022-10-12T00:54:00,mcc,41.93
2022-10-12T00:55:00,mcc,41.41
2022-10-12T00:56:00,mcc,41.95
2022-10-12T00:57:00,mcc,54.68
2022-10-12T00:58:00,mcc,40.08
2022-10-12T00:59:00,mcc,40.40
2022-10-12T01:00:00,mcc,42.14
2022-10-12T01:01:00,mcc,41.64
2022-10-12T01:02:00,mcc,42.21
2022-10-12T01:03:00,mcc,40.89
2022-10-12T01:04:00,mcc,52.73
2022-10-12T01:05:00,mcc,40.77
2022-10-12T01:06:00,mcc,40.82
2022-10-12T01:07:00,mcc,40.89
2022-10-12T01:08:00,mcc,41.00
2022-10-12T01:09:00,mcc,40.86
2022-10-12T01:10:00,mcc,40.97
2022-10-12T01:11:00,mcc,41.48
2022-10-12T01:12:00,mcc,42.87
2022-10-12T01:13:00,mcc,44.58
2022-10-12T01:14:00,mcc,43.38
2022-10-12T01:15:00,mcc,46.93
2022-10-12T01:16:00,mcc,46.77
2022-10-12T01:17:00,mcc,46.65
2022-10-12T01:18:00,mcc,45.60
2022-10-12T01:19:00,mcc,44.59
2022-10-12T01:20:00,mcc,42.39
2022-10-12T01:21:00,mcc,40.67
2022-10-12T01:22:00,mcc,38.92
2022-10-12T01:23:00,mcc,44.02
2022-10-12T01:24:00,mcc,38.76
2022-10-12T01:25:00,mcc,39.04
2022-10-12T01:26:00,mcc,43.49
2022-10-12T01:27:00,mcc,40.65
2022-10-12T01:28:00,mcc,40.97
2022-10-12T01:29:00,mcc,41.75
2022-10-12T01:30:00,mcc,43.91
2022-10-12T01:31:00,mcc,40.93
2022-10-12T01:32:00,mcc,39.51
2022-10-12T01:33:00,mcc,40.05
2022-10-12T01:34:00,mcc,42.30
2022-10-12T01:35:00,mcc,41.52
2022-10-12T01:36:00,mcc,41.74
2022-10-12T01:37:00,mcc,41.14
2022-10-12T01:38:00,mcc,39.45
2022-10-12T01:39:00,mcc,40.56
2022-10-12T01:40:00,mcc,40.57
2022-10-12T01:41:00,mcc,42.43
2022-10-12T01:42:00,mcc,40.05
2022-10-12T01:43:00,mcc,41.02
2022-10-12T01:44:00,mcc,42.46
2022-10-12T01:45:00,mcc,46.23
2022-10-12T01:46:00,mcc,43.95
2022-10-12T01:47:00,mcc,44.79
2022-10-12T01:48:00,mcc,45.18
2022-10-12T01:49:00,mcc,43.33
2022-10-12T01:50:00,mcc,41.85
2022-10-12T01:51:00,mcc,42.53
2022-10-12T01:52:00,mcc,43.65
2022-10-12T01:53:00,mcc,40.83
2022-10-12T01:54:00,mcc,51.18
2022-10-12T01:55:00,mcc,50.97
2022-10-12T01:56:00,mcc,55.00
2022-10-12T01:57:00,mcc,53.85
2022-10-12T01:58:00,mcc,43.44
2022-10-12T01:59:00,mcc,40.89
2022-10-12T02:00:00,mcc,43.97
2022-10-12T02:01:00,mcc,39.43
2022-10-12T02:02:00,mcc,46.98
2022-10-12T02:03:00,mcc,38.89
2022-10-12T02:04:00,mcc,39.62
2022-10-12T02:05:00,mcc,39.18
2022-10-12T02:06:00,mcc,40.18
2022-10-12T02:07:00,mcc,42.64
2022-10-12T02:08:00,mcc,39.89
2022-10-12T02:09:00,mcc,40.76
2022-10-12T02:10:00,mcc,40.33
2022-10-12T02:11:00,mcc,45.48
2022-10-12T02:12:00,mcc,43.12
2022-10-12T02:13:00,mcc,42.69
2022-10-12T02:14:00,mcc,42.04
2022-10-12T02:15:00,mcc,53.95
2022-10-12T02:16:00,mcc,40.01
2022-10-12T02:17:00,mcc,41.76
2022-10-12T02:18:00,mcc,43.13
2022-10-12T02:19:00,mcc,41.79
2022-10-12T02:20:00,mcc,43.65
2022-10-12T02:21:00,mcc,49.58
2022-10-12T02:22:00,mcc,43.49
2022-10-12T02:23:00,mcc,41.44
2022-10-12T02:24:00,mcc,41.76
2022-10-12T02:25:00,mcc,42.64
2022-10-12T02:26:00,mcc,42.21
2022-10-12T02:27:00,mcc,42.89
2022-10-12T02:28:00,mcc,44.32
2022-10-12T02:29:00,mcc,43.69
2022-10-12T02:30:00,mcc,44.63
2022-10-12T02:31:00,mcc,38.02
2022-10-12T02:32:00,mcc,38.14
2022-10-12T02:33:00,mcc,37.88
2022-10-12T02:34:00,mcc,37.57
2022-10-12T02:35:00,mcc,40.05
2022-10-12T02:36:00,mcc,41.65
2022-10-12T02:37:00,mcc,42.83
2022-10-12T02:38:00,mcc,38.94
2022-10-12T02:39:00,mcc,48.57
2022-10-12T02:40:00,mcc,38.78
2022-10-12T02:41:00,mcc,42.21
2022-10-12T02:42:00,mcc,39.87
2022-10-12T02:43:00,mcc,42.15
2022-10-12T02:44:00,mcc,45.39
2022-10-12T02:45:00,mcc,41.81
2022-10-12T02:46:00,mcc,42.88
2022-10-12T02:47:00,mcc,42.20
2022-10-12T02:48:00,mcc,45.79
2022-10-12T02:49:00,mcc,43.48
2022-10-12T02:50:00,mcc,43.21
2022-10-12T02:51:00,mcc,42.04
2022-10-12T02:52:00,mcc,41.97
2022-10-12T02:53:00,mcc,40.60
2022-10-12T02:54:00,mcc,38.63
2022-10-12T02:55:00,mcc,41.75
2022-10-12T02:56:00,mcc,39.59
2022-10-12T02:57:00,mcc,41.50
2022-10-12T02:58:00,mcc,41.44
2022-10-12T02:59:00,mcc,49.84
2022-10-12T03:00:00,mcc,41.04
2022-10-12T03:01:00,mcc,43.24
2022-10-12T03:02:00,mcc,42.78
2022-10-12T03:03:00,mcc,43.60
2022-10-12T03:04:00,mcc,42.35
2022-10-12T03:05:00,mcc,41.96
2022-10-12T03:06:00,mcc,39.55
2022-10-12T03:07:00,mcc,50.23
2022-10-12T03:08:00,mcc,46.80
2022-10-12T03:09:00,mcc,47.14
2022-10-12T03:10:00,mcc,46.18
2022-10-12T03:11:00,mcc,39.33
2022-10-12T03:12:00,mcc,39.84
2022-10-12T03:13:00,mcc,39.15
2022-10-12T03:14:00,mcc,41.80
2022-10-12T03:15:00,mcc,39.14
2022-10-12T03:16:00,mcc,40.05
2022-10-12T03:17:00,mcc,40.57
2022-10-12T03:18:00,mcc,51.06
2022-10-12T03:19:00,mcc,42.77
2022-10-12T03:20:00,mcc,42.80
2022-10-12T03:21:00,mcc,42.75
2022-10-12T03:22:00,mcc,44.07
2022-10-12T03:23:00,mcc,40.77
2022-10-12T03:24:00,mcc,50.76
2022-10-12T03:25:00,mcc,38.55
2022-10-12T03:26:00,mcc,40.15
2022-10-12T03:27:00,mcc,37.80
2022-10-12T03:28:00,mcc,35.83
2022-10-12T03:29:00,mcc,37.53
2022-10-12T03:30:00,mcc,38.50
2022-10-12T03:31:00,mcc,39.38
2022-10-12T03:32:00,mcc,40.51
2022-10-12T03:33:00,mcc,43.70
2022-10-12T03:34:00,mcc,41.97
2022-10-12T03:35:00,mcc,41.11
2022-10-12T03:36:00,mcc,40.36
2022-10-12T03:37:00,mcc,42.59
2022-10-12T03:38:00,mcc,50.34
2022-10-12T03:39:00,mcc,41.07
2022-10-12T03:40:00,mcc,44.15
2022-10-12T03:41:00,mcc,39.70
2022-10-12T03:42:00,mcc,42.20
2022-10-12T03:43:00,mcc,42.53
2022-10-12T03:44:00,mcc,42.10
2022-10-12T03:45:00,mcc,40.18
2022-10-12T03:46:00,mcc,41.89
2022-10-12T03:47:00,mcc,42.65
2022-10-12T03:48:00,mcc,47.27
2022-10-12T03:49:00,mcc,43.02
2022-10-12T03:50:00,mcc,42.76
2022-10-12T03:51:00,mcc,41.43
2022-10-12T03:52:00,mcc,43.30
2022-10-12T03:53:00,mcc,40.54
2022-10-12T03:54:00,mcc,41.27
2022-10-12T03:55:00,mcc,40.58
2022-10-12T03:56:00,mcc,38.67
2022-10-12T03:57:00,mcc,46.07
2022-10-12T03:58:00,mcc,36.97
2022-10-12T03:59:00,mcc,40.46
2022-10-12T04:00:00,mcc,37.92
2022-10-12T04:01:00,mcc,38.97
2022-10-12T04:02:00,mcc,39.02
2022-10-12T04:03:00,mcc,39.77
2022-10-12T04:04:00,mcc,38.78
2022-10-12T04:05:00,mcc,38.24
2022-10-12T04:06:00,mcc,39.57
2022-10-12T04:07:00,mcc,41.12
2022-10-12T04:08:00,mcc,40.34
2022-10-12T04:09:00,mcc,40.99
2022-10-12T04:10:00,mcc,43.75
2022-10-12T04:11:00,mcc,43.39
2022-10-12T04:12:00,mcc,43.37
2022-10-12T04:13:00,mcc,42.59
2022-10-12T04:14:00,mcc,42.53
2022-10-12T04:15:00,mcc,41.56
2022-10-12T04:16:00,mcc,40.21
2022-10-12T04:17:00,mcc,49.70
2022-10-12T04:18:00,mcc,43.72
2022-10-12T04:19:00,mcc,41.67
2022-10-12T04:20:00,mcc,41.04
2022-10-12T04:21:00,mcc,42.36
2022-10-12T04:22:00,mcc,43.79
2022-10-12T04:23:00,mcc,43.00
2022-10-12T04:24:00,mcc,42.09
2022-10-12T04:25:00,mcc,42.16
2022-10-12T04:26:00,mcc,41.34
2022-10-12T04:27:00,mcc,39.72
2022-10-12T04:28:00,mcc,38.61
2022-10-12T04:29:00,mcc,40.64
2022-10-12T04:30:00,mcc,38.41
2022-10-12T04:31:00,mcc,36.87
2022-10-12T04:32:00,mcc,49.67
2022-10-12T04:33:00,mcc,39.33
2022-10-12T04:34:00,mcc,39.64
2022-10-12T04:35:00,mcc,36.20
2022-10-12T04:36:00,mcc,36.50
2022-10-12T04:37:00,mcc,48.41
2022-10-12T04:38:00,mcc,37.30
2022-10-12T04:39:00,mcc,39.46
2022-10-12T04:40:00,mcc,40.31
2022-10-12T04:41:00,mcc,41.68
2022-10-12T04:42:00,mcc,40.67
2022-10-12T04:43:00,mcc,42.03
2022-10-12T04:44:00,mcc,44.02
2022-10-12T04:45:00,mcc,41.38
2022-10-12T04:46:00,mcc,39.50
2022-10-12T04:47:00,mcc,39.61
2022-10-12T04:48:00,mcc,41.45
2022-10-12T04:49:00,mcc,39.52
2022-10-12T04:50:00,mcc,39.77
2022-10-12T04:51:00,mcc,39.02
2022-10-12T04:52:00,mcc,40.28
2022-10-12T04:53:00,mcc,40.62
2022-10-12T04:54:00,mcc,49.42
2022-10-12T04:55:00,mcc,41.56
2022-10-12T04:56:00,mcc,43.64
2022-10-12T04:57:00,mcc,50.62
2022-10-12T04:58:00,mcc,40.46
2022-10-12T04:59:00,mcc,39.33
2022-10-12T05:00:00,mcc,40.50
2022-10-12T05:01:00,mcc,39.72
2022-10-12T05:02:00,mcc,37.31
2022-10-12T05:03:00,mcc,37.53
2022-10-12T05:04:00,mcc,38.61
2022-10-12T05:05:00,mcc,38.16
2022-10-12T05:06:00,mcc,38.24
2022-10-12T05:07:00,mcc,40.73
2022-10-12T05:08:00,mcc,39.06
2022-10-12T05:09:00,mcc,39.01
2022-10-12T05:10:00,mcc,42.13
2022-10-12T05:11:00,mcc,46.34
2022-10-12T05:12:00,mcc,41.73
2022-10-12T05:13:00,mcc,42.55
2022-10-12T05:14:00,mcc,43.98
2022-10-12T05:15:00,mcc,42.77
2022-10-12T05:16:00,mcc,47.76
2022-10-12T05:17:00,mcc,40.97
2022-10-12T05:18:00,mcc,38.75
2022-10-12T05:19:00,mcc,42.02
2022-10-12T05:20:00,mcc,40.16
2022-10-12T05:21:00,mcc,40.19
2022-10-12T05:22:00,mcc,41.13
2022-10-12T05:23:00,mcc,40.27
2022-10-12T05:24:00,mcc,39.62
2022-10-12T05:25:00,mcc,40.86
2022-10-12T05:26:00,mcc,42.55
2022-10-12T05:27:00,mcc,42.04
2022-10-12T05:28:00,mcc,41.16
2022-10-12T05:29:00,mcc,39.22
2022-10-12T05:30:00,mcc,38.77
2022-10-12T05:31:00,mcc,39.32
2022-10-12T05:32:00,mcc,39.10
2022-10-12T05:33:00,mcc,40.21
2022-10-12T05:34:00,mcc,42.34
2022-10-12T05:35:00,mcc,47.26
2022-10-12T05:36:00,mcc,38.47
2022-10-12T05:37:00,mcc,37.34
2022-10-12T05:38:00,mcc,39.15
2022-10-12T05:39:00,mcc,37.90
2022-10-12T05:40:00,mcc,37.96
2022-10-12T05:41:00,mcc,43.23
2022-10-12T05:42:00,mcc,46.40
2022-10-12T05:43:00,mcc,46.70
2022-10-12T05:44:00,mcc,45.29
2022-10-12T05:45:00,mcc,47.56
2022-10-12T05:46:00,mcc,49.02
2022-10-12T05:47:00,mcc,39.06
2022-10-12T05:48:00,mcc,51.82
2022-10-12T05:49:00,mcc,53.71
2022-10-12T05:50:00,mcc,43.70
2022-10-12T05:51:00,mcc,39.65
2022-10-12T05:52:00,mcc,38.25
2022-10-12T05:53:00,mcc,38.44
2022-10-12T05:54:00,mcc,40.73
2022-10-12T05:55:00,mcc,40.78
2022-10-12T05:56:00,mcc,44.37
2022-10-12T05:57:00,mcc,41.06
2022-10-12T05:58:00,mcc,43.33
2022-10-12T05:59:00,mcc,40.11
2022-10-12T06:00:00,mcc,39.53
2022-10-12T06:01:00,mcc,40.17
2022-10-12T06:02:00,mcc,39.49
2022-10-12T06:03:00,mcc,36.88
2022-10-12T06:04:00,mcc,38.13
2022-10-12T06:05:00,mcc,40.96
2022-10-12T06:06:00,mcc,39.58
2022-10-12T06:07:00,mcc,41.00
2022-10-12T06:08:00,mcc,39.42
2022-10-12T06:09:00,mcc,40.73
2022-10-12T06:10:00,mcc,40.05
2022-10-12T06:11:00,mcc,41.48
2022-10-12T06:12:00,mcc,41.67
2022-10-12T06:13:00,mcc,43.87
2022-10-12T06:14:00,mcc,42.62
2022-10-12T06:15:00,mcc,41.14
2022-10-12T06:16:00,mcc,42.53
2022-10-12T06:17:00,mcc,44.94
2022-10-12T06:18:00,mcc,42.59
2022-10-12T06:19:00,mcc,42.49
2022-10-12T06:20:00,mcc,43.70
2022-10-12T06:21:00,mcc,45.70
2022-10-12T06:22:00,mcc,43.83
2022-10-12T06:23:00,mcc,44.33
2022-10-12T06:24:00,mcc,49.95
2022-10-12T06:25:00,mcc,54.76
2022-10-12T06:26:00,mcc,51.40
2022-10-12T06:27:00,mcc,51.66
2022-10-12T06:28:00,mcc,58.08
2022-10-12T06:29:00,mcc,59.29
2022-10-12T06:30:00,mcc,65.48
2022-10-12T06:31:00,mcc,66.42
2022-10-12T06:32:00,mcc,68.14
2022-10-12T06:33:00,mcc,69.63
2022-10-12T06:34:00,mcc,69.77
2022-10-12T06:35:00,mcc,76.80
2022-10-12T06:36:00,mcc,69.91
2022-10-12T06:37:00,mcc,73.60
2022-10-12T06:38:00,mcc,69.66
2022-10-12T06:39:00,mcc,66.26
2022-10-12T06:40:00,mcc,66.51
2022-10-12T06:41:00,mcc,66.38
2022-10-12T06:42:00,mcc,68.78
2022-10-12T06:43:00,mcc,62.38
2022-10-12T06:44:00,mcc,63.21
2022-10-12T06:45:00,mcc,61.20
2022-10-12T06:46:00,mcc,77.55
2022-10-12T06:47:00,mcc,59.71
2022-10-12T06:48:00,mcc,73.24
2022-10-12T06:49:00,mcc,78.55
2022-10-12T06:50:00,mcc,77.33
2022-10-12T06:51:00,mcc,67.77
2022-10-12T06:52:00,mcc,90.14
2022-10-12T06:53:00,mcc,63.32
2022-10-12T06:54:00,mcc,73.51
2022-10-12T06:55:00,mcc,74.69
2022-10-12T06:56:00,mcc,60.65
2022-10-12T06:57:00,mcc,59.75
2022-10-12T06:58:00,mcc,60.02
2022-10-12T06:59:00,mcc,67.26
2022-10-12T07:00:00,mcc,66.81
2022-10-12T07:01:00,mcc,64.70
2022-10-12T07:02:00,mcc,55.69
2022-10-12T07:03:00,mcc,56.29
2022-10-12T07:04:00,mcc,65.03
2022-10-12T07:05:00,mcc,62.95
2022-10-12T07:06:00,mcc,69.89
2022-10-12T07:07:00,mcc,55.55
2022-10-12T07:08:00,mcc,54.30
2022-10-12T07:09:00,mcc,59.67
2022-10-12T07:10:00,mcc,56.79
2022-10-12T07:11:00,mcc,57.10
2022-10-12T07:12:00,mcc,52.31
2022-10-12T07:13:00,mcc,56.94
2022-10-12T07:14:00,mcc,51.30
2022-10-12T07:15:00,mcc,51.61
2022-10-12T07:16:00,mcc,61.07
2022-10-12T07:17:00,mcc,59.50
2022-10-12T07:18:00,mcc,50.27
2022-10-12T07:19:00,mcc,49.66
2022-10-12T07:20:00,mcc,53.37
2022-10-12T07:21:00,mcc,51.37
2022-10-12T07:22:00,mcc,55.20
2022-10-12T07:23:00,mcc,62.25
2022-10-12T07:24:00,mcc,61.28
2022-10-12T07:25:00,mcc,52.28
2022-10-12T07:26:00,mcc,61.28
2022-10-12T07:27:00,mcc,59.72
2022-10-12T07:28:00,mcc,62.59
2022-10-12T07:29:00,mcc,67.75
2022-10-12T07:30:00,mcc,59.38
2022-10-12T07:31:00,mcc,60.51
2022-10-12T07:32:00,mcc,53.19
2022-10-12T07:33:00,mcc,50.51
2022-10-12T07:34:00,mcc,58.16
2022-10-12T07:35:00,mcc,50.58
2022-10-12T07:36:00,mcc,54.50
2022-10-12T07:37:00,mcc,51.30
2022-10-12T07:38:00,mcc,51.90
2022-10-12T07:39:00,mcc,53.63
2022-10-12T07:40:00,mcc,54.27
2022-10-12T07:41:00,mcc,53.83
2022-10-12T07:42:00,mcc,58.09
2022-10-12T07:43:00,mcc,54.97
2022-10-12T07:44:00,mcc,59.35
2022-10-12T07:45:00,mcc,56.14
2022-10-12T07:46:00,mcc,55.50
2022-10-12T07:47:00,mcc,63.97
2022-10-12T07:48:00,mcc,56.12
2022-10-12T07:49:00,mcc,61.65
2022-10-12T07:50:00,mcc,54.86
2022-10-12T07:51:00,mcc,58.37
2022-10-12T07:52:00,mcc,55.90
2022-10-12T07:53:00,mcc,56.76
2022-10-12T07:54:00,mcc,56.28
2022-10-12T07:55:00,mcc,64.14
2022-10-12T07:56:00,mcc,58.82
2022-10-12T07:57:00,mcc,57.23
2022-10-12T07:58:00,mcc,55.99
2022-10-12T07:59:00,mcc,57.86
2022-10-12T08:00:00,mcc,63.87
2022-10-12T08:01:00,mcc,51.66
2022-10-12T08:02:00,mcc,51.75
2022-10-12T08:03:00,mcc,51.78
2022-10-12T08:04:00,mcc,51.83
2022-10-12T08:05:00,mcc,52.60
2022-10-12T08:06:00,mcc,60.36
2022-10-12T08:07:00,mcc,61.68
2022-10-12T08:08:00,mcc,52.10
2022-10-12T08:09:00,mcc,51.26
2022-10-12T08:10:00,mcc,51.85
2022-10-12T08:11:00,mcc,51.74
2022-10-12T08:12:00,mcc,50.77
2022-10-12T08:13:00,mcc,50.13
2022-10-12T08:14:00,mcc,59.51
2022-10-12T08:15:00,mcc,55.87
2022-10-12T08:16:00,mcc,68.58
2022-10-12T08:17:00,mcc,54.49
2022-10-12T08:18:00,mcc,59.76
2022-10-12T08:19:00,mcc,53.74
2022-10-12T08:20:00,mcc,53.69
2022-10-12T08:21:00,mcc,55.34
2022-10-12T08:22:00,mcc,54.46
2022-10-12T08:23:00,mcc,57.14
2022-10-12T08:24:00,mcc,54.88
2022-10-12T08:25:00,mcc,53.61
2022-10-12T08:26:00,mcc,56.20
2022-10-12T08:27:00,mcc,65.81
2022-10-12T08:28:00,mcc,55.16
2022-10-12T08:29:00,mcc,56.17
2022-10-12T08:30:00,mcc,55.92
2022-10-12T08:31:00,mcc,64.55
2022-10-12T08:32:00,mcc,55.40
2022-10-12T08:33:00,mcc,59.61
2022-10-12T08:34:00,mcc,57.43
2022-10-12T08:35:00,mcc,58.42
2022-10-12T08:36:00,mcc,56.10
2022-10-12T08:37:00,mcc,53.79
2022-10-12T08:38:00,mcc,62.59
2022-10-12T08:39:00,mcc,56.18
2022-10-12T08:40:00,mcc,54.40
2022-10-12T08:41:00,mcc,56.57
2022-10-12T08:42:00,mcc,57.09
2022-10-12T08:43:00,mcc,58.75
2022-10-12T08:44:00,mcc,65.78
2022-10-12T08:45:00,mcc,73.64
2022-10-12T08:46:00,mcc,57.22
2022-10-12T08:47:00,mcc,61.64
2022-10-12T08:48:00,mcc,58.05
2022-10-12T08:49:00,mcc,67.20
2022-10-12T08:50:00,mcc,69.12
2022-10-12T08:51:00,mcc,69.98
2022-10-12T08:52:00,mcc,58.45
2022-10-12T08:53:00,mcc,56.83
2022-10-12T08:54:00,mcc,55.97
2022-10-12T08:55:00,mcc,54.73
2022-10-12T08:56:00,mcc,56.56
2022-10-12T08:57:00,mcc,54.42
2022-10-12T08:58:00,mcc,62.72
2022-10-12T08:59:00,mcc,55.60
2022-10-12T09:00:00,mcc,57.63
2022-10-12T09:01:00,mcc,55.29
2022-10-12T09:02:00,mcc,63.80
2022-10-12T09:03:00,mcc,53.72
2022-10-12T09:04:00,mcc,56.46
2022-10-12T09:05:00,mcc,55.45
2022-10-12T09:06:00,mcc,55.77
2022-10-12T09:07:00,mcc,58.83
2022-10-12T09:08:00,mcc,57.38
2022-10-12T09:09:00,mcc,57.48
2022-10-12T09:10:00,mcc,64.20
2022-10-12T09:11:00,mcc,63.98
2022-10-12T09:12:00,mcc,55.10
2022-10-12T09:13:00,mcc,57.25
2022-10-12T09:14:00,mcc,54.66
2022-10-12T09:15:00,mcc,57.97
2022-10-12T09:16:00,mcc,57.91
2022-10-12T09:17:00,mcc,64.10
2022-10-12T09:18:00,mcc,64.08
2022-10-12T09:19:00,mcc,64.68
2022-10-12T09:20:00,mcc,67.53
2022-10-12T09:21:00,mcc,66.53
2022-10-12T09:22:00,mcc,56.80
2022-10-12T09:23:00,mcc,56.51
2022-10-12T09:24:00,mcc,57.21
2022-10-12T09:25:00,mcc,62.43
2022-10-12T09:26:00,mcc,56.44
2022-10-12T09:27:00,mcc,56.01
2022-10-12T09:28:00,mcc,54.83
2022-10-12T09:29:00,mcc,81.29
2022-10-12T09:30:00,mcc,62.94
2022-10-12T09:31:00,mcc,56.05
2022-10-12T09:32:00,mcc,58.38
2022-10-12T09:33:00,mcc,55.56
2022-10-12T09:34:00,mcc,54.04
2022-10-12T09:35:00,mcc,55.65
2022-10-12T09:36:00,mcc,64.90
2022-10-12T09:37:00,mcc,63.48
2022-10-12T09:38:00,mcc,54.14
2022-10-12T09:39:00,mcc,54.14
2022-10-12T09:40:00,mcc,57.55
2022-10-12T09:41:00,mcc,69.59
2022-10-12T09:42:00,mcc,57.02
2022-10-12T09:43:00,mcc,57.92
2022-10-12T09:44:00,mcc,63.14
2022-10-12T09:45:00,mcc,59.99
2022-10-12T09:46:00,mcc,69.62
2022-10-12T09:47:00,mcc,62.68
2022-10-12T09:48:00,mcc,60.26
2022-10-12T09:49:00,mcc,58.92
2022-10-12T09:50:00,mcc,71.30
2022-10-12T09:51:00,mcc,63.25
2022-10-12T09:52:00,mcc,58.93
2022-10-12T09:53:00,mcc,61.92
2022-10-12T09:54:00,mcc,60.30
2022-10-12T09:55:00,mcc,61.92
2022-10-12T09:56:00,mcc,60.82
2022-10-12T09:57:00,mcc,59.45
2022-10-12T09:58:00,mcc,58.15
2022-10-12T09:59:00,mcc,57.63
2022-10-12T10:00:00,mcc,61.40
2022-10-12T10:01:00,mcc,61.67
2022-10-12T10:02:00,mcc,60.52
2022-10-12T10:03:00,mcc,68.66
2022-10-12T10:04:00,mcc,68.21
2022-10-12T10:05:00,mcc,62.68
2022-10-12T10:06:00,mcc,68.12
2022-10-12T10:07:00,mcc,70.61
2022-10-12T10:08:00,mcc,62.98
2022-10-12T10:09:00,mcc,70.60
2022-10-12T10:10:00,mcc,72.41
2022-10-12T10:11:00,mcc,64.01
2022-10-12T10:12:00,mcc,64.18
2022-10-12T10:13:00,mcc,64.60
2022-10-12T10:14:00,mcc,61.31
2022-10-12T10:15:00,mcc,62.68
2022-10-12T10:16:00,mcc,61.72
2022-10-12T10:17:00,mcc,60.32
2022-10-12T10:18:00,mcc,60.39
2022-10-12T10:19:00,mcc,59.54
2022-10-12T10:20:00,mcc,59.66
2022-10-12T10:21:00,mcc,62.11
2022-10-12T10:22:00,mcc,64.10
2022-10-12T10:23:00,mcc,63.40
2022-10-12T10:24:00,mcc,76.71
2022-10-12T10:25:00,mcc,75.98
2022-10-12T10:26:00,mcc,63.80
2022-10-12T10:27:00,mcc,68.43
2022-10-12T10:28:00,mcc,62.63
2022-10-12T10:29:00,mcc,71.93
2022-10-12T10:30:00,mcc,63.59
2022-10-12T10:31:00,mcc,66.79
2022-10-12T10:32:00,mcc,69.52
2022-10-12T10:33:00,mcc,72.75
2022-10-12T10:34:00,mcc,65.70
2022-10-12T10:35:00,mcc,67.92
2022-10-12T10:36:00,mcc,67.41
2022-10-12T10:37:00,mcc,67.47
2022-10-12T10:38:00,mcc,70.95
2022-10-12T10:39:00,mcc,79.92
2022-10-12T10:40:00,mcc,71.47
2022-10-12T10:41:00,mcc,84.52
2022-10-12T10:42:00,mcc,67.22
2022-10-12T10:43:00,mcc,67.59
2022-10-12T10:44:00,mcc,72.03
2022-10-12T10:45:00,mcc,78.32
2022-10-12T10:46:00,mcc,69.04
2022-10-12T10:47:00,mcc,70.82
2022-10-12T10:48:00,mcc,69.84
2022-10-12T10:49:00,mcc,74.68
2022-10-12T10:50:00,mcc,64.88
2022-10-12T10:51:00,mcc,68.47
2022-10-12T10:52:00,mcc,68.13
2022-10-12T10:53:00,mcc,65.01
2022-10-12T10:54:00,mcc,70.07
2022-10-12T10:55:00,mcc,67.57
2022-10-12T10:56:00,mcc,72.34
2022-10-12T10:57:00,mcc,77.86
2022-10-12T10:58:00,mcc,68.53
2022-10-12T10:59:00,mcc,65.77
2022-10-12T11:00:00,mcc,65.02
2022-10-12T11:01:00,mcc,66.63
2022-10-12T11:02:00,mcc,66.64
2022-10-12T11:03:00,mcc,73.78
2022-10-12T11:04:00,mcc,64.89
2022-10-12T11:05:00,mcc,64.52
2022-10-12T11:06:00,mcc,74.42
2022-10-12T11:07:00,mcc,69.92
2022-10-12T11:08:00,mcc,72.92
2022-10-12T11:09:00,mcc,66.43
2022-10-12T11:10:00,mcc,64.66
2022-10-12T11:11:00,mcc,71.43
2022-10-12T11:12:00,mcc,70.98
2022-10-12T11:13:00,mcc,66.58
2022-10-12T11:14:00,mcc,66.95
2022-10-12T11:15:00,mcc,74.71
2022-10-12T11:16:00,mcc,62.94
2022-10-12T11:17:00,mcc,75.15
2022-10-12T11:18:00,mcc,76.98
2022-10-12T11:19:00,mcc,69.48
2022-10-12T11:20:00,mcc,66.30
2022-10-12T11:21:00,mcc,71.49
2022-10-12T11:22:00,mcc,66.01
2022-10-12T11:23:00,mcc,66.60
2022-10-12T11:24:00,mcc,66.64
2022-10-12T11:25:00,mcc,68.39
2022-10-12T11:26:00,mcc,70.00
2022-10-12T11:27:00,mcc,76.28
2022-10-12T11:28:00,mcc,68.29
2022-10-12T11:29:00,mcc,66.79
2022-10-12T11:30:00,mcc,69.07
2022-10-12T11:31:00,mcc,67.76
2022-10-12T11:32:00,mcc,77.47
2022-10-12T11:33:00,mcc,78.10
2022-10-12T11:34:00,mcc,81.81
2022-10-12T11:35:00,mcc,79.09
2022-10-12T11:36:00,mcc,66.08
2022-10-12T11:37:00,mcc,71.57
2022-10-12T11:38:00,mcc,76.08
2022-10-12T11:39:00,mcc,72.79
2022-10-12T11:40:00,mcc,69.74
2022-10-12T11:41:00,mcc,68.64
2022-10-12T11:42:00,mcc,72.74
2022-10-12T11:43:00,mcc,67.85
2022-10-12T11:44:00,mcc,65.73
2022-10-12T11:45:00,mcc,64.17
2022-10-12T11:46:00,mcc,76.29
2022-10-12T11:47:00,mcc,66.12
2022-10-12T11:48:00,mcc,64.66
2022-10-12T11:49:00,mcc,67.53
2022-10-12T11:50:00,mcc,63.21
2022-10-12T11:51:00,mcc,67.77
2022-10-12T11:52:00,mcc,62.13
2022-10-12T11:53:00,mcc,65.03
2022-10-12T11:54:00,mcc,64.00
2022-10-12T11:55:00,mcc,63.56
2022-10-12T11:56:00,mcc,72.88
2022-10-12T11:57:00,mcc,62.20
2022-10-12T11:58:00,mcc,64.39
2022-10-12T11:59:00,mcc,67.46
2022-10-12T12:00:00,mcc,64.83
2022-10-12T12:01:00,mcc,65.66
2022-10-12T12:02:00,mcc,76.85
2022-10-12T12:03:00,mcc,68.07
2022-10-12T12:04:00,mcc,80.02
2022-10-12T12:05:00,mcc,67.27
2022-10-12T12:06:00,mcc,69.35
2022-10-12T12:07:00,mcc,66.40
2022-10-12T12:08:00,mcc,74.17
2022-10-12T12:09:00,mcc,64.68
2022-10-12T12:10:00,mcc,65.61
2022-10-12T12:11:00,mcc,67.26
2022-10-12T12:12:00,mcc,70.08
2022-10-12T12:13:00,mcc,68.02
2022-10-12T12:14:00,mcc,77.05
2022-10-12T12:15:00,mcc,66.37
2022-10-12T12:16:00,mcc,68.89
2022-10-12T12:17:00,mcc,67.16
2022-10-12T12:18:00,mcc,66.25
2022-10-12T12:19:00,mcc,68.01
2022-10-12T12:20:00,mcc,76.00
2022-10-12T12:21:00,mcc,69.95
2022-10-12T12:22:00,mcc,67.70
2022-10-12T12:23:00,mcc,67.39
2022-10-12T12:24:00,mcc,70.77
2022-10-12T12:25:00,mcc,70.47
2022-10-12T12:26:00,mcc,71.17
2022-10-12T12:27:00,mcc,67.19
2022-10-12T12:28:00,mcc,66.56
2022-10-12T12:29:00,mcc,69.36
2022-10-12T12:30:00,mcc,69.85
2022-10-12T12:31:00,mcc,68.62
2022-10-12T12:32:00,mcc,66.89
2022-10-12T12:33:00,mcc,69.80
2022-10-12T12:34:00,mcc,66.10
2022-10-12T12:35:00,mcc,64.69
2022-10-12T12:36:00,mcc,66.81
2022-10-12T12:37:00,mcc,63.54
2022-10-12T12:38:00,mcc,65.92
2022-10-12T12:39:00,mcc,65.63
2022-10-12T12:40:00,mcc,67.66
2022-10-12T12:41:00,mcc,64.17
2022-10-12T12:42:00,mcc,68.42
2022-10-12T12:43:00,mcc,70.36
2022-10-12T12:44:00,mcc,68.73
2022-10-12T12:45:00,mcc,66.45
2022-10-12T12:46:00,mcc,67.80
2022-10-12T12:47:00,mcc,71.20
2022-10-12T12:48:00,mcc,67.38
2022-10-12T12:49:00,mcc,76.78
2022-10-12T12:50:00,mcc,67.91
2022-10-12T12:51:00,mcc,72.22
2022-10-12T12:52:00,mcc,68.11
2022-10-12T12:53:00,mcc,66.98
2022-10-12T12:54:00,mcc,71.59
2022-10-12T12:55:00,mcc,73.75
2022-10-12T12:56:00,mcc,69.72
2022-10-12T12:57:00,mcc,69.69
2022-10-12T12:58:00,mcc,69.88
2022-10-12T12:59:00,mcc,73.38
2022-10-12T13:00:00,mcc,70.17
2022-10-12T13:01:00,mcc,78.79
2022-10-12T13:02:00,mcc,69.61
2022-10-12T13:03:00,mcc,82.23
2022-10-12T13:04:00,mcc,66.12
2022-10-12T13:05:00,mcc,68.15
2022-10-12T13:06:00,mcc,72.68
2022-10-12T13:07:00,mcc,70.27
2022-10-12T13:08:00,mcc,69.47
2022-10-12T13:09:00,mcc,64.58
2022-10-12T13:10:00,mcc,64.06
2022-10-12T13:11:00,mcc,65.70
2022-10-12T13:12:00,mcc,66.98
2022-10-12T13:13:00,mcc,73.79
2022-10-12T13:14:00,mcc,65.76
2022-10-12T13:15:00,mcc,67.36
2022-10-12T13:16:00,mcc,64.30
2022-10-12T13:17:00,mcc,60.87
2022-10-12T13:18:00,mcc,64.97